www.pogodaiklimat.ru

Погода и климат >> Архив погоды >> Россия >> Якутия >> Охотский Перевоз


ПОГОДА в Охотском Перевозе

  • Прогноз погоды в Охотском Перевозе
  • Монитор погоды в Охотском Перевозе
  • Климат города

АРХИВ ПОГОДЫ в Охотском Перевозе

Время (UTC), дата Ветер
(напр.,м/с)
 
Видим.   Явления Облачность Т
(С)
Тd
(С)
f
(%)
Тe
(С)
Тes
(С)
Комфортность P
(гПа)
Po
(гПа)
Тmin
(С)
Tmax
(С)
R
(мм)
R24
(мм)
S
(см)
06 17.08 С 2 20 км {туман} 10/10 600 м
[St]
+18.2 +16.2 88 +19 +19 1012.5 996.1
09 17.08 З 1 10 км дым 10/10 600 м
[St]
+17.8 +14.9 83 +19 +19 1011.9 995.4 +19.7
12 17.08 СЗ 1 10 км дым 10/10 600 м
[St]
+16.8 +15.8 94 +18 +18 1011.4 994.9
15 17.08 СЗ 1 10 км 10/10 1000 м
[Sc]
+16.1 +15.4 96 +17 +17 1010.8 994.3
18 17.08 С 2 10 км 10/10 1000 м
[Sc]
+14.5 +13.6 94 +14 +14 1010.7 994.0
21 17.08 С 3 4000 м дождь 10/10 600 м
[Frnb]
+11.6 +11.6 100 +10 +10 1011.1 994.2 +11.6 16
00 18.08 С 2 4000 м дождь 10/10 600 м
[Frnb]
+12.2 +12.0 99 +11 +11 1011.4 994.5
03 18.08 С 2 20 км {дождь} 10/10 600 м
[Frnb]
+13.0 +12.6 97 +12 +12 1011.0 994.2
06 18.08 В 3 20 км {дождь} 10/10 600 м
[Frnb]
+14.6 +13.2 91 +14 +14 1010.3 993.6
09 18.08 СЗ 1 20 км 10/10 600 м
[Frnb]
+14.7 +13.6 93 +15 +15 1010.1 993.4 +14.9 7
12 18.08 СЗ 1 20 км 10/10 1000 м
[Sc]
+13.9 +13.5 97 +14 +14 1010.1 993.4
15 18.08 СЗ 2 10 км 10/10 1000 м
[Sc]
+13.5 +13.3 99 +13 +13 1009.4 992.6
18 18.08 СЗ 1 4000 м слабый дождь 10/10 1000 м
[Sc]
+13.0 +13.0 100 +13 +13 1009.3 992.5
21 18.08 штиль 0 20 км {дождь} 10/10 1000 м
[Sc]
+12.8 +12.8 100 +12 +12 1009.0 992.3 +12.8 0.5
00 19.08 СЗ 1 10 км слабый дождь 10/10 1000 м
[Sc]
+13.5 +13.1 97 +14 +14 1008.8 992.1
03 19.08 С 1 10 км слабый дождь 10/10 600 м
[Frnb Ns]
+13.6 +13.1 97 +14 +14 1008.9 992.2
06 19.08 СЗ 1 20 км в посл. час морось {дождь} 10/10 600 м
[Frnb]
+14.2 +13.1 93 +14 +14 1008.9 992.2
09 19.08 СЗ 1 20 км {дождь} 10/10 600 м
[Frnb]
+14.2 +13.5 96 +14 +14 1009.1 992.4 +15.1 3
12 19.08 ЮЗ 1 20 км {дождь} 9/9 1000 м
[Cu Sc]
+13.5 +13.0 97 +14 +14 1009.8 993.0
15 19.08 ЮЗ 1 10 км {дождь} 10/10 1000 м
[Sc]
+12.7 +12.5 99 +13 +13 1010.0 993.2
18 19.08 ЮЗ 2 10 км {дождь} 10/10 1000 м
[Sc]
+12.6 +12.4 99 +12 +12 1009.8 993.0
21 19.08 ЮЗ 1 20 км 10/10 1000 м
[Cu Sc]
+12.6 +12.4 99 +12 +12 1009.7 992.9 +12.6 0.6
00 20.08 Ю 2 20 км 10/10 600 м
[Frnb]
+13.4 +13.0 97 +13 +13 1010.1 993.3
03 20.08 С 1 20 км 9/9 600 м
[Frnb]
+15.9 +13.2 84 +17 +18 1009.8 993.2
06 20.08 Ю 3 20 км 8/8 600 м
[Cu med, cong]
+18.4 +11.7 65 +19 +20 1008.7 992.3
09 20.08 ЮЗ 1 20 км ясно +20.2 +11.6 58 +23 +24 комфорт 1008.5 992.2 +20.8
12 20.08 ЮЗ 2 20 км {ливн. осадки} 9/9 600 м
[Cb calv]
+14.9 +13.1 89 +15 +15 1008.8 992.2
15 20.08 С 1 10 км ясно +11.7 +11.5 99 +11 +11 1010.3 993.4
18 20.08 штиль 0 10 км ясно +8.0 +8.0 100 +7 +7 1010.7 993.6
00 21.08 СВ 2 2000 м туман ?/? +9.7 +9.7 100 +8 +8 1012.1 995.1
03 21.08 С 2 20 км {туман} 1/1 600 м
[Cu med, cong]
+15.2 +10.7 74 +15 +23 1011.1 994.5
06 21.08 СВ 2 20 км {туман} 3/1 600 м
[Cu med, cong Ci fib]
+19.0 +10.5 58 +20 +25 1009.8 993.4
09 21.08 СВ 3 20 км ясно +19.9 +11.4 58 +22 +22 комфорт 1009.0 992.6 +20.0
12 21.08 С 1 10 км 3/0
[Ci fib]
+13.2 +12.5 96 +13 +13 1009.3 992.5
15 21.08 СЗ 1 10 км 3/0
[Ci fib]
+9.7 +9.5 99 +9 +9 1010.0 993.0
18 21.08 СЗ 1 10 км туман поземный 3/0
[Ci fib]
+7.8 +7.8 100 +7 +7 1010.1 993.0
21 21.08 СЗ 2 10 км туман поземный 8/0
[Ci fib]
+7.8 +7.8 100 +6 +6 1009.7 992.6 +7.2
00 22.08 С 2 20 км 9/0
[Cs]
+13.5 +12.2 92 +13 +17 1009.0 992.3
03 22.08 Ю 1 20 км 10/0
[Cs]
+20.3 +9.9 51 +23 +31 комфорт 1006.6 990.3
06 22.08 Ю 7 20 км 10/0
[Ci fib]
+22.7 +7.1 37 +24 +25 комфорт 1004.9 988.7
09 22.08 Ю 7 20 км 10/1 1000 м
[Sc Cs]
+20.7 +7.0 41 +21 +22 комфорт 1005.1 988.8 +23.2
12 22.08 Ю 7 10 км 10/9 1000 м
[Sc Cs]
+18.6 +7.4 48 +18 +18 1006.2 989.8
15 22.08 Ю 7 10 км 10/10 1000 м
[Sc]
+17.4 +7.3 51 +16 +16 1006.7 990.2
18 22.08 Ю 4 10 км 6/6 1000 м
[Sc]
+16.1 +6.8 54 +15 +15 1007.0 990.4
21 22.08 Ю 6 20 км 10/10 1000 м
[Sc]
+16.4 +6.9 53 +15 +15 1006.6 990.0 +16.0
00 23.08 Ю 5 20 км 10/10 1000 м
[Sc]
+16.5 +10.3 67 +16 +16 1006.9 990.3
03 23.08 ЮЗ 4 50 км 9/9 1000 м
[Sc]
+18.7 +8.7 52 +19 +20 1006.5 990.1
12 23.08 ЮЗ 3 10 км 8/8 1000 м
[Sc]
+17.4 +8.5 56 +17 +17 1006.3 989.8
15 23.08 ЮЗ 4 10 км 5/5 1000 м
[Sc]
+16.7 +8.5 58 +16 +16 1006.8 990.2
18 23.08 Ю 3 10 км 9/9 1000 м
[Sc]
+15.8 +7.9 59 +15 +15 1006.4 989.8
21 23.08 Ю 3 20 км 9/4 1000 м
[Sc As trans Ci fib]
+14.8 +8.0 64 +14 +14 1006.5 989.9 +13.4
00 24.08 ЮЗ 3 20 км 8/6 1000 м
[Sc Cc]
+16.5 +9.4 63 +16 +18 1006.8 990.2
03 24.08 Ю 4 20 км 9/8 1000 м
[Sc Ac trans]
+18.2 +9.5 57 +18 +19 1005.9 989.5

 

Местоположение метеостанции Охотский Перевоз (Якутия, Россия): широта 61.87 долгота 135.50 высота над уровнем моря 141 м.

В архиве по умолчанию представлена погода в Охотском Перевозе за последнюю неделю. Архивные данные за месяц целиком и за предыдущие месяцы, начиная с января 2011 года, Вы можете получить, выбрав интересующий диапазон дат из раскрывающегося списка и нажав кнопку "Ввод!".

Внимание! Время в таблицах - всемирное. Для получения местного времени необходимо прибавить поправку, которая в Охотском Перевозе равна 9 ч.

Смотрите также архив погоды в соседних городах и на ближайших метеорологических станциях:

Погода в Ытык-Кюёле (Якутия, Россия) (118 км)
Погода в Крест-Хальджае (Якутия, Россия) (120 км)
Погода в Теплом Ключе (Якутия, Россия) (121 км)
Погода в Чурапче (Якутия, Россия) (153 км)
Погода в Усть-Мае (Якутия, Россия) (179 км)
Погода в Амге (Якутия, Россия) (220 км)
Погода в Томпо (Якутия, Россия) (232 км)
Погода в Верхоянском Перевозе (Якутия, Россия) (241 км)
Погода в Восточной (Якутия, Россия) (259 км)
Погода в Югоренке (Якутия, Россия) (260 км)

Пояснения к столбцам:

Ветер - указаны скорость ветра в м/с - средняя за 10 мин, порывы в срок и между сроками (в фигурных скобках) и направление, откуда дует ветер: С - северный, СВ - северо-восточный, В - восточный, ЮВ - юго-восточный, Ю - южный, ЮЗ - юго-западный, З - западный, СЗ - северо-западный.
Видимость - горизонтальная дальность видимости в метрах или километрах. При видимости от 1 до 10 км при отсутствии осадков обычно наблюдается дымка, при ухудшении видимости до 1 км и менее - туман. В сухую погоду видимость может ухудшаться дымом, пылью или мглою.
Явления - указаны атмосферные явления, наблюдавшиеся в срок или в последний час перед сроком; фигурными скобками обозначены явления, наблюдавшиеся между сроками (за 1-3 часа до срока); квадратными скобками обозначены град или гололедные отложения с указанием их диаметра в мм.
Облачность - указаны через наклонную черту общая и нижняя облачность в баллах и высота нижней границы облаков в метрах; квадратными скобками обозначены формы облаков: Ci - перистые, Cs - перисто-слоистые, Cc - перисто-кучевые, Ac - высококучевые, As - высокослоистые, Sc - слоисто-кучевые, Ns - слоисто-дождевые, Cu - кучевые, Cb - кучево-дождевые. Подробнее классификацию облаков см. в Атласе облаков (PDF).
T - Температура воздуха - температура, измеренная на высоте 2 м над землей.
Td - Температура точки росы - температура, при понижении до которой содержащийся в воздухе водяной пар достигнет насыщения.
f - Относительная влажность воздуха - влажноcть воздуха, измеренная на высоте 2 м над землей.
Te - Эффективная температура - температура, которую ощущает одетый по сезону человек в тени. Характеристика душности погоды. При расчете учитывается влияние влажности воздуха и скорости ветра на теплоощущения человека.
Tes - Эффективная температура на солнце - температура, которую ощущает человек, с поправкой на солнечный нагрев. Характеристика знойности погоды. Зависит от высоты солнца над горизонтом, облачности и скорости ветра. Ночью, в пасмурную погоду, а также при ветре 12 м/с и более поправка равна нулю.
P - Атмосферное давление - приведенное к уровню моря атмосферное давление.
Po - Атмосферное давление - измеренное на уровне метеостанции атмосферное давление.
Tmin - Минимальная температура - минимум температуры воздуха на высоте 2 м над землей.
Tmax - Максимальная температура - максимум температуры воздуха на высоте 2 м над землей.
R - Количество осадков - Количество выпавших осадков за период времени, мм. При наведении курсора мыши на число - период времени, за который выпало указанное количество осадков.
R24 - Количество осадков - Количество выпавших осадков за 24 часа, мм.
S - Снежный покров - Высота снежного покрова, см. При наведении курсора мыши на число - состояние снежного покрова и степень покрытия местности в баллах.